Showing default

BRO-12, 59108

Orbit data source: Space-Track

BRO-12, 59108 is a payload satellite owned by Unseen Labs (FR) in SSO that was launched on Mon, 04 Mar 2024 UTC via an FALCON 9 launch vehicle from the Air Force Western Test Range (AFWTR). Payload-class satellites include a variety of spacecraft equipped with specific instruments for various scientific and technological missions. These include communications satellites like Starlink; space stations such as the ISS; scientific satellites like the Hubble; Earth observation satellites from companies like Planet Labs, Umbra, and HawkEye 360; GPS; miniature CubeSats for education and research; and military/defense satellites.

Loading next visibility...
Identifier
59108, 2024-043L
Orbit
SSO
Country
Flag of FRFR
Related business
Manufacturer
GOMSpace
Mission
Operational Commercial Sigint
Bus & Motor
CUBESAT 8U, Unknown motor
Mass
15 kg wet, ~15 kg dry
Launch date (UTC)
2024-03-04 (2 years ago)
Launch vehicle
FALCON 9
Launch site
Air Force Western Test Range (AFWTR)
Object type
Payload
Rocket body
Debris
Shape & HBR
Box, 0.2 m
Radar Cross Section
0.100 m², Medium (>0.1 m² and < 1m²)

Expand to show TLE details & history
Last TLE update: 10 hours ago

TLE from 10 hours ago
0 BRO-12
1 59108U 24043L   26235.60282612  .00000651  00000-0  61813-4 0  9996
2 59108  97.8569   7.0490 0009503 122.1532 238.0613 14.96972812134721
Epoch: 2026-08-23T14:28Z
TLE epoch observation values (Epoch: 2026-08-23T14:28:04.176Z)
Latitude
0.00001°
Longitude
178.13508°
Altitude
582.803 km
Speed
7.567 km/s
True Right ascension
00h 28m 11s
True Declination
0° 00' 00"
Sunlit
Object was in full shadow at epoch
Visualization orbit readout
Latitude
Unknown
Longitude
Unknown
Altitude
Unknown
Speed
Unknown
Apparent Right ascension
Unknown
Apparent Declination
Unknown
Sunlit
N/A
Visualization observer readout
Local Sidereal Time
15:54:07
Azimuth
Unknown
Elevation
Unknown
Doppler factor
Unknown
Orbital elements
Apogee altitude
579.878 km
Perigee altitude
566.666 km
Semi-major axis
6,951.409 km
Eccentricity
0.00095
Inclination
97.8569°
RAAN
7.049°
Arg. of periapsis
122.1532°
True anomaly
237.96895°
Mean anomaly
238.0613°
Eccentric anomaly
238.01512°
Mean motion
3.74485 °/min
Orbital period
96.13 mins
BSTAR
0.000061813
Loading maneuver chart data...
Computing Atmospheric mass density...

Documentation

Showing up to 5 results
|